LICTLICJ

Guest
Details From LICT - TRAPANI BIRGI
To LICJ - PALERMO
Flight Number -
Tags generated
Created
Modified
Stats Distance 34 nm / 63 km
Max Altitude 500 ft / 152 m
Waypoints 3
Social Downloads 3
Likes 0
Share VATSIM

Download

Looking for another format? Having issues loading an existing format? Contact us
Advertisement - Login to hide

Notes

Basic altitude profile: - Ascent Rate: 2500ft/min - Ascent Speed: 250kts - Cruise Altitude: 35000ft - Cruise Speed: 420kts - Descent Rate: 1500ft/min - Descent Speed: 250kts Options: - Use NATs: yes - Use PACOTS: yes - Use low airways: yes - Use high airways: yes

Route

LICT TRP LICJ

ID Type Via Altitude Latitude Longitude Leg Dist Tot Dist Heading (true) Name
O LICT APT - 0 ft / 0 m 37.91142˚ 12.48794˚ - 0 nm - TRAPANI BIRGI
TRP VOR - 500 ft / 152 m 37.89609˚ 12.51333˚ 1 nm 1 nm 127° / 127° TRAPANI VORTAC
O LICJ APT - 0 ft / 0 m 38.17738˚ 13.09704˚ 32 nm 33 nm 58° / 59° PALERMO

Altitude Profile

Advertisement - Login to hide

LICT

Details ICAO LICT (TPS)
Name TRAPANI BIRGI
Region Italy
Timezone Europe/Rome (UTC+2.0)
Stats Elevation 24 ft / 7 m (AMSL)
Location 37.911417° 12.487937°
Runways 1
Magnetic Variation 2.877° E

METAR

LICT 201855Z 34006KT 9999 FEW022 19/16 Q1010

Decode

TAF

Not found

Departure Runways

ID Width Length Bearing (true) Bearing (mag) Surface Threshold Offset Overrun Length
13 148 ft / 45 m 8,827 ft / 2,691 m 127.75° 124.87° Asphalt 0 ft / 0 m 1,171 ft / 357 m
31 148 ft / 45 m 8,827 ft / 2,691 m 307.76° 304.88° Asphalt 820 ft / 250 m 983 ft / 300 m

LICJ

Details ICAO LICJ (PMO)
Name PALERMO
Region Italy
Timezone Europe/Rome (UTC+2.0)
Stats Elevation 65 ft / 20 m (AMSL)
Location 38.177377° 13.097035°
Runways 2
Magnetic Variation 2.992° E

METAR

LICJ 201920Z 23005KT CAVOK 19/17 Q1010

Decode

TAF

TAF LICJ 201700Z 2018/2118 04015KT 9999 SCT030 BECMG 2018/2020 VRB05KT BECMG 2110/2112 05012KT TEMPO 2111/2117 4000 SHRA

Decode

Destination Runways

ID Width Length Bearing (true) Bearing (mag) Surface Threshold Offset Overrun Length
02 148 ft / 45 m 6,813 ft / 2,077 m 23.81° 20.82° Asphalt 10 ft / 3 m 0 ft / 0 m
07 197 ft / 60 m 10,685 ft / 3,257 m 66.82° 63.83° Asphalt 404 ft / 123 m 0 ft / 0 m
20 148 ft / 45 m 6,813 ft / 2,077 m 203.81° 200.82° Asphalt 10 ft / 3 m 0 ft / 0 m
25 197 ft / 60 m 10,685 ft / 3,257 m 246.85° 243.86° Asphalt 679 ft / 207 m 0 ft / 0 m

Approach Navaids

Runway Type Ident Frequency Range Bearing (true) Bearing (mag) Slope Elevation
20 Localiser ITO 110.55 MHz 18 nm / 33 km 203.81° 200.82° - 65 ft / 20 m (AMSL)
20 Glidescope ITO 110.55 MHz 10 nm / 19 km 203.81° 200.82° 3.00° 65 ft / 20 m (AMSL)
20 DME ITO 110.55 MHz 18 nm / 33 km - - - 38 ft / 12 m (AMSL)
25 Localiser RAI 109.50 MHz 18 nm / 33 km 246.82° 243.83° - 65 ft / 20 m (AMSL)
25 Glidescope RAI 109.50 MHz 10 nm / 19 km 246.84° 243.84° 3.00° 65 ft / 20 m (AMSL)
25 DME RAI 109.50 MHz 18 nm / 33 km - - - 65 ft / 20 m (AMSL)

Popular Alternatives